Regional Weather Roundup
Issued by NWS Austin/San Antonio, TX

Home | Current Version | Previous Version | Text Only | Print | Product List | Glossary On
Versions: 1 2 3 4 5 6 7 8 9 10 11 12 13 14 15 16 17 18 19 20 21 22 23 24 25 26 27 28 29 30 31 32 33 34 35 36 37 38 39 40 41 42 43 44 45 46 47 48 49 50
000
ASUS44 KEWX 280901
RWREWX
SOUTH TEXAS REGIONAL WEATHER ROUNDUP
NATIONAL WEATHER SERVICE AUSTIN/SAN ANTONIO TX
400 AM CDT FRI APR 28 2017

NOTE: "FAIR" INDICATED FEW OR NO CLOUDS BELOW 12,000 FEET WITH NO
SIGNIFICANT WEATHER AND/OR OBSTRUCTIONS TO VISIBILITY.

* - THESE STATIONS ARE NOT NWS OR FAA STATIONS...AND ARE NOT SUBJECT
    TO NWS AND FAA QUALITY CONTROL.

TXZ171-172-183>190-281000-
TEXAS HILL COUNTRY AND EDWARDS PLATEAU

CITY           SKY/WX    TMP DP  RH WIND       PRES   REMARKS
JUNCTION       CLOUDY    70  64  81 S8        29.59R
*LLANO         CLEAR     66  63  88 CALM      29.61F
BURNET         MOCLDY    67  61  81 S10G20    29.60F
*HORSESHOE BAY CLOUDY    69  63  81 S8G17     29.59S
*KERRVILLE     CLOUDY    66  65  96 SE9       29.62S FOG
*FREDERICKSBRG CLOUDY    66  60  81 S8G17     29.61F
*ROCKSPRINGS   CLOUDY    66  64  94 S20       29.61F FOG
*BOERNE STAGE  CLOUDY    66  63  88 S10       29.62F
*CASTROVILLE   CLOUDY    71  65  80 SE6       29.61F
HONDO          LGT RAIN  72  67  84 SE9       29.60F
*UVALDE        CLOUDY    69  66  91 CALM      29.58F
DEL RIO        CLOUDY    71  67  87 E12       29.53S
LAUGHLIN AFB   CLOUDY    71  68  90 SE15      29.53S
CARRIZO SPRGS  CLOUDY    72  68  88 SE9       29.54S
*EAGLE PASS    NOT AVBL
$$

TXZ173-191>194-202-209-217>225-228-281000-
CENTRAL AND SOUTH CENTRAL TEXAS

CITY           SKY/WX    TMP DP  RH WIND       PRES   REMARKS
GEORGETOWN     CLOUDY    72  63  73 S18G24    29.58F
AUSTIN/BERGSTM CLOUDY    73  66  78 S10       29.59F
AUSTIN/MABRY   CLOUDY    72  65  78 VRB5      29.60F
*AUSTIN/EXEC   CLOUDY    72  66  83 S9G16     29.59F
*LAGO VISTA    CLOUDY    69  64  82 S12G18    29.60F
SAN MARCOS     CLOUDY    72  64  78 S10       29.61S
NEW BRAUNFELS  CLOUDY    72  66  81 S7        29.59F
RANDOLPH AFB   CLOUDY    71  69  94 S6        29.60F
PT SAN ANTONIO CLOUDY    71  66  84 SE6       29.57F
SAN ANTONIO    CLOUDY    71  65  81 SE8       29.60F
STINSON FIELD  CLOUDY    73  66  78 CALM      29.58F
*LA GRANGE     CLOUDY    72  70  92 S3        29.58F
*GIDDINGS      CLOUDY    70  67  89 S6        29.61S
*GONZALES      CLOUDY    73  71  92 S8        29.59F
$$

TXZ163>164-176>182-195>201-210>213-226-227-235-281000-
SOUTHEAST TEXAS

CITY           SKY/WX    TMP DP  RH WIND       PRES   REMARKS
COLLEGE STN    CLOUDY    71  67  87 S8        29.60F
*BRYAN         CLOUDY    71  67  88 S8G16     29.62S
*CALDWELL      NOT AVBL
*CROCKETT      MOCLDY    68  64  88 SE5       29.65F
*BRENHAM       CLOUDY    72  68  89 SE5       29.61F
HUNTSVILLE     CLOUDY    72  65  78 VRB5      29.61F
CONROE         CLOUDY    69  66  90 CALM      29.63S
HOUSTON BUSH   CLOUDY    76  70  82 S10       29.62F
HOUSTON HOBBY  CLOUDY    75  72  90 SE6       29.62S
*HOUSTON SW AP CLOUDY    74  71  91 SE7       29.63S
PEARLAND       CLOUDY    77  73  87 S6        29.64S
HOUSTON HOOKS  CLOUDY    75  71  87 VRB3      29.62F
ELLINGTON FLD  CLOUDY    75  70  83 SE8       29.64S
SUGAR LAND     CLOUDY    76  73  91 SE10      29.61F
*HOUSTON EXEC  CLOUDY    73  72  94 S10       29.62F FOG
*CLEVELAND MUN CLOUDY    72  69  91 CALM      29.64S FOG
*WHARTON       CLOUDY    74  70  88 SE7       29.62S
*COLUMBUS      CLOUDY    72  69  89 SE3       29.61S
*EAGLE LAKE    CLOUDY    73  71  94 SE6       29.60F
$$

TXZ214>216-236>238-281000-
THE UPPER TEXAS COAST

CITY           SKY/WX    TMP DP  RH WIND       PRES   REMARKS
*ORANGE        CLOUDY    76  74  92 S9        29.68S
PORT ARTHUR    CLOUDY    77  73  87 S13       29.65R
GALVESTON      CLOUDY    78  75  90 S15       29.64S
ANGLETON       CLOUDY    78  74  87 S13       29.62F
*BAY CITY      CLOUDY    76  74  93 SE6       29.62S FOG
PALACIOS       CLOUDY    76  72  87 S7        29.61F
$$

TXZ229>234-239>247-281000-
TEXAS COASTAL BEND AND RIO GRANDE PLAINS

CITY           SKY/WX    TMP DP  RH WIND       PRES   REMARKS
VICTORIA       CLEAR     73  69  87 SE10      29.59F
*BEEVILLE      CLOUDY   N/A N/A N/A SE6       29.57F
ROCKPORT       PTCLDY    76  72  87 SE9       29.58F
*PORT ARANSAS  CLEAR     75  73  92 S10       29.57F FOG
*PORT LAVACA   CLEAR     73  72  98 CALM      29.60F
*INGLESIDE     DRIZZLE   76  73  91 E3        29.58S
CORPUS CHRISTI MOCLDY    74  73  97 SE7       29.58F
CORPUS NAS     CLEAR     76  74  93 S13       29.57F FOG
*ROBSTOWN      MOCLDY    75  75 100 SE7       29.57F
ALICE          CLOUDY    75  72  90 SE10      29.56F
KINGSVILLE NAS CLOUDY    75  74  96 SE9       29.57F
COTULLA        CLOUDY    73  68  84 SE8       29.55F
*FAITH RANCH   MOCLDY    73  70  88 SE14G20   29.53F
LAREDO         CLOUDY    73  70  90 SE9       29.54F
$$

TXZ248>255-281000-
DEEP SOUTH TEXAS

CITY           SKY/WX    TMP DP  RH WIND       PRES   REMARKS
BROWNSVILLE    PTCLDY    77  73  87 S12       29.57F
PORT ISABEL    PTCLDY    77  72  84 S15       29.57F HAZE
*SOUTH PADRE   NOT AVBL
HARLINGEN      CLOUDY    75  74  96 S8        29.57F
*HEBBRONVILLE  CLOUDY    71  69  95 S6        29.57F FOG
MCALLEN        PTCLDY    76  71  85 SE14      29.57F
*WESLACO       MOCLDY    74  71  89 S8        29.57F
FALFURRIAS     MOCLDY    73  70  92 SE6       29.56F
EDINBURG       CLOUDY    76  72  87 SE9       29.57F FOG
*ZAPATA        MOCLDY    74  69  82 SE5       29.54S
$$

TXZ213>215-236>238-242>244-246-247-251-254-255-281000-
CMAN STATIONS

STATION/POSITION TIME  TEMP    WIND        PRES    WAVE
                       AIR SEA DIR/SP/G            HT/PER
                 (UTC) (F)     (DEG/KT/KT) (MB)    (FT/S)
SABINE PASS      0830   76 76  150/ 13/ 16 1005.4
SEA RIM ST PARK  0800   75     150/ 12/ 13 1004.7
NORTH JETTY/GLS  0830      75  140/ 12/ 14 1003.1
EAGLE POINT      0830   75 74  160/  9/ 10 1003.1
MORGANS POINT    0830   75 75  130/  9/ 12 1003.2
MISSION/ARANSAS  0800   77                 1003.0
PORT O`CONNOR    0830   76     150/  7/  8 1002.3
PORT ARANSAS     0800   76 76  130/ 10/ 11 1002.2
MALAQUITE BEACH  0830   76 78  140/ 14/ 16 1002.0
BAFFIN BAY       0830   76 77  110/ 14/ 17 1001.5
PORT ISABEL      0830   77 81  160/ 15/ 20 1001.3
$$




USA.gov is the U.S. government's official web portal to all federal, state and local government web resources and services.